Tracking 29799 objects as of 11-Oct-2024
HD Live streaming from Space Station
objects crossing your sky now

ARIANE 1 DEB

Track ARIANE 1 DEB now!
10-day predictions


NORAD ID: 39107
Int'l Code: 1986-019VV
Perigee: 759.2 km
Apogee: 978.7 km
Inclination: 98.7 °
Period: 102.2 minutes
Semi major axis: 7239 km
RCS: 0.0163 m2 (small)
Launch date: February 22, 1986
Source: France (FR)
Launch site: FRENCH GUIANA (FRGUI)

Note: This is SATELLITE DEBRIS
Your satellite tracking list
Your tracking list is empty




NASA's NSSDC Master Catalog

Two Line Element Set (TLE):
1 39107U 86019VV  24282.82895191  .00004341  00000-0  22633-2 0  9995
2 39107  98.7112 316.5550 0151642 316.7186  42.2152 14.09290626577842
Source of the keplerian elements: AFSPC